Current Weather Conditions: station 44040

sailwx.info

Wind from 100 at 5 knots gusting 7

Wave height 0.6 meters (1 feet), 4 second period

Air temperature 15.9° C
Dewpoint 9.0° C

Last reported at 2019-Oct-21 16:45 UTC.
Time now 2019-Oct-21 18:00 UTC

Location: N 41°00' W 073°36'.
View on Google Maps.

See reports from other nearby stations

  
Tides and Currents Weather Stations Pressure Air Temp Water Temp Dewpoint Dewpoint Depression Visibility Wind Speed Wind Dir Waves Ship Positions
date/time (UTC)wind fromknots sea level pressurealtimeterstation pressurevisibilityair tempwater tempwave heightnotes
2019-Oct-21 16:45 100 5 gusting 7 15.9 0.6
2019-Oct-21 15:50 090 7 gusting 9 15.6 0.6
2019-Oct-21 15:45 070 7 gusting 11 15.4 0.6
2019-Oct-21 14:50 060 9 gusting 13 15.1 0.6
2019-Oct-21 14:45 060 13 gusting 17 14.9 0.7
2019-Oct-21 13:50 040 13 gusting 17 14.4 0.7
2019-Oct-21 13:45 050 13 gusting 19 14.1 0.6
2019-Oct-21 12:50 040 15 gusting 19 13.9 0.6
2019-Oct-21 12:45 030 15 gusting 21 13.4 0.6
2019-Oct-21 11:50 030 15 gusting 23 13.2 0.5
2019-Oct-21 11:45 010 15 gusting 19 12.4 0.5
2019-Oct-21 10:50 010 15 gusting 19 12.0 0.5
2019-Oct-21 10:45 020 15 gusting 19 12.2 0.5
2019-Oct-21 09:50 020 15 gusting 19 12.1 0.5
2019-Oct-21 09:45 030 15 gusting 21 12.4 0.5
2019-Oct-21 08:50 030 15 gusting 21 12.2 0.5
2019-Oct-21 08:45 010 15 gusting 19 12.3 0.6
2019-Oct-21 07:50 020 15 gusting 19 12.6 0.6
2019-Oct-21 07:45 030 13 gusting 19 12.8 0.6
2019-Oct-21 06:50 030 13 gusting 19 12.8 0.6
2019-Oct-21 06:45 030 13 gusting 19 12.8 0.7
2019-Oct-21 05:50 050 15 gusting 21 12.6 0.8
2019-Oct-21 05:45 050 17 gusting 21 12.8 0.8
2019-Oct-21 04:50 050 15 gusting 23 12.4 0.8
2019-Oct-21 04:45 040 15 gusting 21 12.5 0.8
2019-Oct-21 03:50 050 15 gusting 21 12.6 0.9
2019-Oct-21 03:45 060 17 gusting 23 12.8 0.8
2019-Oct-21 02:50 060 17 gusting 23 12.8 0.8
2019-Oct-21 02:45 050 15 gusting 21 12.8 0.8
2019-Oct-21 01:50 060 17 gusting 23 12.9 0.8
2019-Oct-21 01:45 060 15 gusting 21 13.1 0.8
2019-Oct-21 00:50 060 15 gusting 19 13.4 0.7
2019-Oct-21 00:45 070 15 gusting 21 13.6 0.6
2019-Oct-20 23:45 100 13 gusting 19 13.2 0.3
2019-Oct-20 22:45 110 11 gusting 15 14.0 0.2
2019-Oct-20 21:50 100 7 gusting 11 14.0 0.2
2019-Oct-20 21:45 090 11 gusting 13 14.4 0.2
2019-Oct-20 20:50 080 11 gusting 13 14.3 0.2
2019-Oct-20 20:45 080 9 gusting 13 14.6 0.2
2019-Oct-20 19:50 090 7 gusting 9 14.6 0.2
2019-Oct-20 19:45 090 9 gusting 11 14.8 0.3
2019-Oct-20 18:50 060 11 gusting 13 14.8 0.3
2019-Oct-20 18:45 060 11 gusting 15 14.7 0.3
2019-Oct-20 17:50 060 11 gusting 13 14.7 0.3
2019-Oct-20 17:45 060 11 gusting 13 14.7 0.4
2019-Oct-20 16:50 070 9 gusting 13 14.8 0.4
2019-Oct-20 16:45 080 9 gusting 11 14.7 0.3
2019-Oct-20 15:50 080 9 gusting 13 14.3 0.4
2019-Oct-20 15:45 080 11 gusting 15 13.8 0.4
2019-Oct-20 14:50 090 11 gusting 15 13.3 0.3
2019-Oct-20 14:30 070 9 gusting 13 12.4 0.3
2019-Oct-20 13:50 070 9 gusting 13 12.2 0.2
2019-Oct-20 13:45 060 9 gusting 11 12.0 0.2
2019-Oct-20 12:50 040 7 gusting 11 11.6 0.2
2019-Oct-20 12:45 040 9 gusting 13 12.2 0.1
2019-Oct-20 11:50 060 9 gusting 11 12.6 0.2
2019-Oct-20 11:45 070 7 gusting 9 12.4 0.1
2019-Oct-20 10:50 080 7 gusting 9 12.8 0.1
2019-Oct-20 10:45 090 7 gusting 9 12.6
2019-Oct-20 09:50 070 5 gusting 9 12.4
2019-Oct-20 09:45 060 5 gusting 7 12.4 0.1
2019-Oct-20 08:50 030 5 gusting 7 11.9
2019-Oct-20 08:45 030 3 gusting 5 11.9
2019-Oct-20 07:50 020 3 gusting 5 11.8
2019-Oct-20 07:45 030 3 gusting 5 12.9
2019-Oct-20 06:50 180 1 gusting 3 13.0
2019-Oct-20 06:45 200 3 gusting 5 12.8
2019-Oct-20 05:50 050 1 gusting 5 12.8
2019-Oct-20 05:30 360 1 gusting 3 12.4
2019-Oct-20 04:50 010 1 gusting 3 12.5
2019-Oct-20 04:45 350 3 gusting 5 13.3
2019-Oct-20 04:00 200 5 gusting 7 13.6
2019-Oct-20 03:50 200 5 gusting 7 13.5
2019-Oct-20 03:20 210 3 gusting 5 13.4
2019-Oct-20 03:00 200 3 gusting 7 13.0
2019-Oct-20 02:00 170 3 gusting 5 12.8 0.1
2019-Oct-20 01:50 170 3 gusting 5 12.8 0.1
2019-Oct-20 01:00 190 5 gusting 5 12.6 0.1
2019-Oct-20 00:50 180 3 gusting 5 12.7
2019-Oct-20 00:00 190 9 gusting 11 13.3 0.1
2019-Oct-19 23:20 190 9 gusting 11 13.3 0.1
2019-Oct-19 23:00 180 9 gusting 11 13.4 0.1
2019-Oct-19 22:00 170 7 gusting 9 14.9 0.1
2019-Oct-19 21:50 180 7 gusting 9 14.6 0.1
2019-Oct-19 21:00 200 7 gusting 9 15.4 0.1
2019-Oct-19 20:50 200 7 gusting 9 15.5 0.1
2019-Oct-19 20:20 210 7 gusting 11 15.1 0.1
2019-Oct-19 20:00 210 7 gusting 11 15.0 0.2
2019-Oct-19 19:20 210 7 gusting 11 14.6 0.2
2019-Oct-19 19:00 220 7 gusting 9 14.2 0.1
2019-Oct-19 18:20 220 7 gusting 9 13.9 0.1
2019-Oct-19 18:00 210 7 gusting 11 13.1 0.2